Regional Weather Roundup
Issued by NWS Nashville, TN

Home | Current Version | Previous Version | Text Only | Print | Product List | Glossary On
Versions: 1 2 3 4 5 6 7 8 9 10 11 12 13 14 15 16 17 18 19 20 21 22 23 24 25 26 27 28 29 30 31 32 33 34 35 36 37 38 39 40 41 42 43 44 45 46 47 48 49 50
000
ASUS44 KOHX 012210
RWROHX
MIDDLE TENNESSEE HOURLY WEATHER ROUNDUP
NATIONAL WEATHER SERVICE NASHVILLE TN
500 PM CDT TUE SEP 01 2015

NOTE: "FAIR" INDICATES FEW OR NO CLOUDS BELOW 12,000 FEET WITH
NO SIGNIFICANT WEATHER AND/OR OBSTRUCTIONS TO VISIBILITY.

* THESE REPORTS ARE NOT UNDER NWS QUALITY CONTROL AND MAY NOT
  REPORT WEATHER SUCH AS PRECIPITATION AND FOG.


TNZ005>011-023>034-057-059-062>066-078-080-012300
...NORTHERN MIDDLE TENNESSEE...

CITY           SKY/WX    TMP DP  RH WIND       PRES   REMARKS
CLARKSVILLE    PTSUNNY   88  65  46 SW6       30.07S HX  90
CROSSVILLE     PTSUNNY   81  65  58 CALM      30.16S
DICKSON        PTSUNNY   88  66  48 E3        30.09S HX  90
LIVINGSTON     MOSUNNY   86  68  54 N3        30.14
NASHVILLE      CLOUDY    88  63  43 E5        30.08F
SMYRNA         PTSUNNY   94  66  39 VRB3      30.08F HX  97
$$
TNZ056-058-060-061-075>077-079-093>097-012300
...SOUTHERN MIDDLE TENNESSEE...

CITY           SKY/WX    TMP DP  RH WIND       PRES   REMARKS
COLUMBIA       MOSUNNY   88  68  51 CALM      30.07S HX  91
LEWISBURG      PTSUNNY   87  65  47 CALM      30.08F
MCMINNVILLE    MOSUNNY   86  68  54 E3        30.11S
SHELBYVILLE    SUNNY     88  70  55 VRB3      30.10S HX  92
TULLAHOMA      MOSUNNY   84  66  54 N6        30.11F
WINCHESTER     MOSUNNY   86  68  54 NE5       30.09F
$$


...KEY TO REMARKS...
VSB - VISIBILITY IN MILES
WCI - WIND CHILL INDEX
HX  - HEAT INDEX



USA.gov is the U.S. government's official web portal to all federal, state and local government web resources and services.